[[{"header":{"parameterUnit":"m.s-1","parameterCategory":1,"la1":30.2991,"la2":30.254,"lo1":-89.0895,"lo2":-89.0444,"dy":0.0017,"dx":0.0017,"nx":28,"ny":28,"refTime":"2025-02-26T03:00:00:Z","depth":0,"parameterNumber":2,"parameterNumberName":"U-component_of_WINDS"},"data":[0,0,0,0,0,0,0,0,0,0,0,0,0,0,0,0,0,0,0,0,0,0,0,0,0,0,0,0,0,0,0,0,0,0,0,0,0,0,0,0,0,0,0,0,0,0,0,0,0,0,0,0,0,0,0,0,0,0,1.5432,1.5432,0,1.5462,1.5462,1.5462,1.5392,1.539,1.5387,1.5385,1.5421,1.5424,1.5427,0,0,0,0,0,0,0,0,0,0,0,0,0,1.5319,1.5322,1.5432,1.5432,1.5433,1.5462,1.5462,1.5462,1.5392,1.5389,1.5387,1.5384,1.542,1.5423,1.5427,0,0,0,0,0,0,0,0,0,0,0,0,0,1.5361,1.5322,1.5432,1.5401,1.5398,1.5462,1.5462,1.5463,1.5393,1.5389,1.5386,1.5383,1.5419,1.5423,1.5428,1.5524,0,0,1.5441,1.5443,0,0,0,0,0,0,0,0,1.5358,1.5365,1.5405,1.5403,1.54,1.5419,1.5435,1.5483,1.5394,1.5395,1.5385,1.5381,1.5423,1.5427,1.5441,1.5525,1.5527,1.5442,1.5445,1.5447,1.5448,0,0,0,0,0,0,0,1.5356,1.5363,1.5444,1.5406,1.5403,1.5387,1.5389,1.5444,1.5428,1.5395,1.539,1.5394,1.5422,1.5436,1.5441,1.5527,1.5442,1.5446,1.5449,1.545,1.5694,1.5697,0,0,0,0,0,0,1.5356,1.5361,1.5443,1.5445,1.537,1.5392,1.5394,1.5417,1.5427,1.5425,1.5397,1.539,1.543,1.5436,1.5442,1.5556,1.5447,1.5451,1.5454,1.569,1.5695,1.5699,0,0,0,0,0,0,1.5354,1.5364,1.5442,1.5402,1.541,1.5398,1.5423,1.5419,1.5434,1.5429,1.5426,1.5414,1.5428,1.5435,1.5504,1.5556,1.5453,1.5457,1.5686,1.5692,1.5697,1.5784,0,0,0,0,0,0,1.5351,1.5364,1.5398,1.5403,1.5413,1.5502,1.5427,1.5422,1.5441,1.5433,1.5445,1.5443,1.5426,1.5497,1.5508,1.556,1.5461,1.5681,1.5688,1.5695,1.5776,1.5792,1.5805,0,0,0,0,0,1.5347,1.5423,1.5401,1.5411,1.5456,1.5505,1.551,1.5487,1.5446,1.5482,1.5479,1.5443,1.5548,1.5505,1.5517,1.5571,1.5678,1.5686,1.5694,1.577,1.5789,1.5805,0,0,0,0,0,0,1.5426,1.5423,1.5398,1.5477,1.5492,1.5493,1.5537,1.5508,1.5536,1.5527,1.5499,1.5502,1.5576,1.558,1.5532,1.5665,1.5606,1.5618,1.566,1.5678,1.5692,1.5689,1.5464,0,0,0,0,0,1.5452,1.5491,1.5486,1.5556,1.5565,1.555,1.557,1.5551,1.5566,1.5572,1.5574,1.5591,1.5628,1.5653,1.5687,1.5777,1.5779,1.582,1.5834,1.5846,1.5856,1.5906,1.5924,1.5726,1.5726,1.5726,0,0,1.5508,1.551,1.5537,1.5572,1.5581,1.5623,1.5556,1.5603,1.5634,1.558,1.5644,1.5646,1.5664,1.5743,1.5779,1.5749,1.5912,1.5857,1.5866,1.587,1.5916,1.5935,1.5952,1.5732,1.5731,1.573,0,0,1.563,1.5635,1.5694,1.5705,1.5719,1.5709,1.5723,1.5729,1.5728,1.5792,1.5752,1.5791,1.5855,1.5869,1.5884,1.6014,1.5982,1.6026,1.6101,1.6149,1.6165,1.6179,1.6226,1.6243,1.6036,1.6036,1.6036,0,1.5697,1.5757,1.5729,1.5779,1.5797,1.5748,1.5809,1.5821,1.5847,1.5861,1.5827,1.5907,1.5915,1.5998,1.603,1.6044,1.6061,1.6024,1.6165,1.6178,1.619,1.6235,1.6253,1.6041,1.6041,1.604,1.604,0,1.5839,1.5882,1.5929,1.5953,1.5976,1.6031,1.6014,1.6041,1.602,1.6015,1.6081,1.609,1.6125,1.6143,1.6124,1.6224,1.6205,1.6169,1.6109,1.6215,1.6256,1.6273,1.6049,1.6047,1.6045,1.6044,0,0,1.6011,1.602,1.6038,1.6048,1.6061,1.6094,1.6149,1.6182,1.6206,1.6226,1.6272,1.6327,1.6294,1.6312,1.6294,1.6337,1.644,1.6295,1.6295,1.6322,1.6553,1.658,1.66,1.6419,1.6422,1.6425,1.6551,0,1.6132,1.6223,1.6201,1.6292,1.6332,1.6287,1.6335,1.6349,1.6346,1.638,1.6377,1.6417,1.6369,1.638,1.642,1.6419,1.6486,1.6409,1.6463,1.6465,1.646,1.6622,1.6651,1.677,1.6567,1.657,1.6572,0,1.6285,1.6309,1.6404,1.6412,1.6428,1.647,1.6499,1.6533,1.6549,1.6544,1.6564,1.6539,1.6594,1.6534,1.6612,1.656,1.6581,1.6584,1.6588,1.6592,1.6525,1.6631,1.6807,1.6825,1.6597,1.6595,1.6593,0,1.6401,1.6458,1.6522,1.6533,1.6543,1.6575,1.6581,1.6593,1.6615,1.6641,1.6655,1.6689,1.6707,1.6734,1.6719,1.6676,1.68,1.6738,1.6798,1.6799,1.6826,1.6825,1.7008,1.684,1.6839,1.6839,1.6839,0,1.6539,1.6599,1.6575,1.6615,1.6681,1.6656,1.6723,1.6724,1.6736,1.6777,1.6741,1.678,1.6758,1.6796,1.6785,1.6851,1.686,1.6858,1.6855,1.6861,1.6862,1.6875,1.6866,1.6844,1.6843,1.6842,1.6841,0,1.668,1.6666,1.6733,1.6737,1.674,1.6789,1.6794,1.6832,1.6826,1.6878,1.6888,1.688,1.6923,1.6911,1.6958,1.695,1.7035,1.702,1.7029,1.7025,1.7086,1.7081,1.7285,1.7311,1.7126,1.7127,1.7129,0,1.6768,1.6813,1.6822,1.6846,1.6854,1.6893,1.6915,1.6893,1.6918,1.694,1.6976,1.7016,1.7046,1.7118,1.7117,1.7153,1.714,1.7209,1.7145,1.7151,1.7142,1.7139,1.7144,1.7222,1.7224,1.7226,1.7227,0,1.6927,1.6918,1.695,1.6981,1.7007,1.7031,1.7051,1.7073,1.7053,1.7083,1.7125,1.7149,1.7197,1.7238,1.7271,1.7279,1.7251,1.7247,1.7263,1.7271,1.7274,1.7273,1.7064,1.7243,1.7241,1.724,1.7239,1.7238,1.7044,1.7083,1.7095,1.7133,1.7145,1.7165,1.7201,1.72,1.7235,1.7271,1.7257,1.7307,1.7324,1.7365,1.7378,1.7418,1.7392,1.7415,1.742,1.7427,1.7434,1.7268,1.7424,1.7424,1.7423,1.7423,1.7422,0,1.7201,1.7207,1.7242,1.7271,1.7301,1.7271,1.7292,1.732,1.7363,1.7381,1.7411,1.7462,1.7502,1.7504,1.7542,1.7574,1.7562,1.7584,1.7582,1.7584,1.7455,1.7438,1.7593,1.7593,1.7593,1.7593,1.7593,1.7593,1.7286,1.735,1.7343,1.7413,1.7419,1.7467,1.7482,1.7501,1.7515,1.7572,1.7604,1.7605,1.7618,1.7656,1.7692,1.7692,1.7708,1.7735,1.7731,1.761,1.7593,1.7577,1.756,1.7739,1.7739,1.7856,1.7857,1.7858]},{"header":{"parameterUnit":"m.s-1","parameterCategory":1,"la1":30.2991,"la2":30.254,"lo1":-89.0895,"lo2":-89.0444,"dy":0.0017,"dx":0.0017,"nx":28,"ny":28,"refTime":"2025-02-26T03:00:00:Z","depth":0,"parameterNumber":3,"parameterNumberName":"V-component_of_WINDS"},"data":[0,0,0,0,0,0,0,0,0,0,0,0,0,0,0,0,0,0,0,0,0,0,0,0,0,0,0,0,0,0,0,0,0,0,0,0,0,0,0,0,0,0,0,0,0,0,0,0,0,0,0,0,0,0,0,0,0,0,0.4806,0.4806,0,0.4822,0.4822,0.4822,0.4807,0.4807,0.4806,0.4806,0.4823,0.4824,0.4825,0,0,0,0,0,0,0,0,0,0,0,0,0,0.4764,0.4765,0.4806,0.4806,0.4807,0.4822,0.4822,0.4822,0.4807,0.4807,0.4806,0.4805,0.4822,0.4824,0.4825,0,0,0,0,0,0,0,0,0,0,0,0,0,0.4781,0.4765,0.4806,0.4801,0.4801,0.4822,0.4822,0.4823,0.4808,0.4807,0.4806,0.4805,0.4822,0.4823,0.4825,0.4852,0,0,0.483,0.483,0,0,0,0,0,0,0,0,0.478,0.4783,0.4801,0.4801,0.4801,0.4812,0.4814,0.4833,0.4808,0.4805,0.4806,0.4805,0.482,0.4821,0.4826,0.4853,0.4854,0.483,0.4831,0.4831,0.4832,0,0,0,0,0,0,0,0.4779,0.4782,0.4812,0.4802,0.4802,0.4798,0.48,0.4817,0.4817,0.4805,0.4804,0.4806,0.482,0.4825,0.4827,0.4854,0.483,0.4831,0.4832,0.4833,0.4905,0.4906,0,0,0,0,0,0,0.4778,0.4781,0.4812,0.4813,0.4788,0.48,0.4801,0.4809,0.4817,0.4817,0.4807,0.4805,0.4823,0.4825,0.4827,0.4861,0.4831,0.4833,0.4834,0.4904,0.4906,0.4907,0,0,0,0,0,0,0.4778,0.4781,0.4811,0.4797,0.48,0.4801,0.481,0.481,0.4816,0.4818,0.4818,0.4812,0.4822,0.4825,0.4846,0.4861,0.4833,0.4835,0.4903,0.4905,0.4906,0.4928,0,0,0,0,0,0,0.4776,0.4781,0.4791,0.4797,0.4801,0.483,0.4811,0.4811,0.4818,0.4816,0.4824,0.4824,0.4822,0.4844,0.4848,0.4863,0.4836,0.4902,0.4904,0.4906,0.4926,0.493,0.4933,0,0,0,0,0,0.4775,0.4797,0.4792,0.4796,0.4814,0.4831,0.4833,0.483,0.4819,0.483,0.4832,0.4824,0.4859,0.4847,0.4851,0.4866,0.4901,0.4903,0.4905,0.4924,0.4929,0.4933,0,0,0,0,0,0,0.4793,0.4797,0.4792,0.4816,0.4823,0.4828,0.4841,0.4835,0.4846,0.4844,0.4839,0.4841,0.4864,0.4867,0.4853,0.4894,0.4878,0.4881,0.4891,0.4896,0.4899,0.4899,0.4837,0,0,0,0,0,0.4799,0.4812,0.4816,0.4837,0.4841,0.4841,0.4848,0.4845,0.4852,0.4855,0.4858,0.4866,0.4879,0.4887,0.4899,0.4926,0.4928,0.4939,0.4942,0.4945,0.4949,0.4964,0.4969,0.4914,0.4914,0.4914,0,0,0.4813,0.4818,0.4826,0.4841,0.4846,0.486,0.4843,0.4859,0.4869,0.4857,0.4878,0.4881,0.4889,0.4913,0.4924,0.4917,0.4964,0.4948,0.4951,0.4952,0.4967,0.4972,0.4977,0.4916,0.4915,0.4915,0,0,0.4847,0.4851,0.4869,0.4875,0.4882,0.4882,0.4887,0.4893,0.4894,0.4915,0.4906,0.4919,0.4941,0.4947,0.4953,0.4989,0.4982,0.4993,0.5013,0.5028,0.5033,0.5036,0.505,0.5055,0.4996,0.4996,0.4996,0,0.4863,0.4884,0.4879,0.4896,0.4903,0.4892,0.4911,0.4917,0.4928,0.4934,0.4925,0.4953,0.4957,0.4984,0.4992,0.4997,0.5003,0.4993,0.5032,0.5036,0.504,0.5053,0.5058,0.4997,0.4997,0.4997,0.4997,0,0.4905,0.4919,0.4933,0.4945,0.4953,0.4971,0.4969,0.4978,0.4975,0.4975,0.4997,0.5002,0.5015,0.5021,0.5017,0.5047,0.5042,0.5033,0.5017,0.5046,0.5059,0.5064,0.4999,0.4999,0.4998,0.4998,0,0,0.495,0.4959,0.4964,0.4969,0.4977,0.4989,0.5006,0.5019,0.5027,0.5035,0.505,0.5069,0.5061,0.5068,0.5065,0.5078,0.5107,0.5067,0.5067,0.5075,0.5141,0.5149,0.5155,0.5102,0.5103,0.5104,0.5141,0,0.4984,0.5014,0.5011,0.504,0.5054,0.5044,0.5059,0.5066,0.5067,0.5079,0.5081,0.5095,0.5082,0.5086,0.5099,0.5101,0.5121,0.5098,0.5117,0.5118,0.5116,0.5161,0.5169,0.5204,0.5146,0.5147,0.5147,0,0.5028,0.5038,0.5068,0.5075,0.5081,0.5094,0.5106,0.5118,0.5125,0.5125,0.5133,0.5128,0.5146,0.513,0.5155,0.514,0.5147,0.5149,0.5151,0.5153,0.5135,0.5166,0.5215,0.5221,0.5154,0.5154,0.5153,0,0.5059,0.508,0.5101,0.5106,0.5114,0.5124,0.5128,0.5135,0.5143,0.5153,0.5158,0.5171,0.5178,0.5187,0.5186,0.5174,0.5212,0.5195,0.5213,0.5213,0.5222,0.5222,0.5274,0.5225,0.5225,0.5225,0.5225,0,0.5099,0.5118,0.5116,0.5129,0.515,0.5146,0.5168,0.517,0.5177,0.519,0.5182,0.5196,0.5192,0.5205,0.5204,0.5226,0.5229,0.523,0.5229,0.5231,0.5231,0.5237,0.5235,0.5226,0.5226,0.5226,0.5226,0,0.5138,0.5137,0.516,0.5165,0.5167,0.5183,0.5188,0.52,0.5201,0.5219,0.5222,0.5223,0.5239,0.5238,0.5255,0.5254,0.5281,0.5277,0.5278,0.5278,0.5297,0.5295,0.5355,0.5364,0.5308,0.5309,0.5309,0,0.5163,0.5178,0.5185,0.5194,0.5198,0.5212,0.5221,0.5217,0.5226,0.5236,0.5248,0.5262,0.5274,0.5299,0.5301,0.5314,0.5311,0.5332,0.5313,0.5315,0.5313,0.5313,0.5315,0.5335,0.5336,0.5337,0.5337,0,0.5209,0.5208,0.522,0.5233,0.5243,0.5252,0.5261,0.5269,0.5266,0.5277,0.5292,0.5301,0.5319,0.5333,0.5346,0.535,0.5344,0.5342,0.5348,0.535,0.5351,0.5352,0.5289,0.5341,0.5341,0.5341,0.534,0.534,0.5243,0.5256,0.5264,0.5278,0.5284,0.5292,0.5305,0.5307,0.5319,0.5334,0.5331,0.5348,0.5356,0.5372,0.5378,0.5392,0.5384,0.5392,0.5394,0.5396,0.5398,0.5348,0.5394,0.5394,0.5393,0.5393,0.5393,0,0.529,0.5294,0.5307,0.532,0.5331,0.5323,0.5332,0.5342,0.5358,0.5366,0.5377,0.5395,0.5409,0.5413,0.5427,0.5437,0.5435,0.5441,0.5441,0.5442,0.5403,0.5398,0.5443,0.5443,0.5443,0.5443,0.5443,0.5443,0.5315,0.5337,0.5337,0.5362,0.5366,0.5384,0.539,0.5398,0.5404,0.5424,0.5436,0.5438,0.5445,0.5459,0.5472,0.5472,0.5478,0.5486,0.5486,0.545,0.5445,0.544,0.5435,0.5487,0.5487,0.5524,0.5524,0.5525]}]]